Flag for United Kingdom Weather past 2 weeks in Cheltenham, England, United Kingdom

52 °F

Broken clouds.

Feels Like: 51 °F
Forecast: N/A
Wind: 3 mph from Southwest

Location: Staverton Private

Current Time: Nov 26, 2015 at 4:26:47 PM

Latest Report: Nov 26, 2015 at 3:50 PM

Visibility: N/A

Pressure: 30.12 "Hg

Humidity: 94%

Dew point: 50 °F

Location of CheltenhamLocation

Historic Weather in Cheltenham — Graph


Cheltenham temperature yesterday

Maximum temperature yesterday: 52 °F (at 10:50 AM)
Minimum temperature yesterday: 48 °F (at 7:50 AM)
Average temperature yesterday: 49 °F

Past Weeks' High & Low Weather Summary

High61 °F (Nov 15, 12:50 PM)100% (Nov 17, 6:50 AM)30.30 "Hg (Nov 17, 6:50 AM)
Low30 °F (Nov 23, 7:20 AM)45% (Nov 21, 2:20 PM)29.45 "Hg (Nov 17, 1:20 PM)
Average50 °F82%29.92 "Hg
* Reported Nov 11 3:20 PM — Nov 26 3:20 PM, Cheltenham, Weather by CustomWeather, © 2015

Note: Actual official high and low records may vary slightly from our data, if they occured in-between our weather recording intervals... More about our weather records


Cheltenham weather history for previous 24 hours

Time TempWeatherWind HumidityBarometerVisibility
3:20 PM
Thu, Nov 26
54 °FBroken clouds.3 mph88%30.12 "HgN/A
2:50 PM54 °FBroken clouds.3 mph88%30.12 "HgN/A
2:20 PM54 °FBroken clouds.5 mph88%30.12 "HgN/A
1:50 PM54 °FBroken clouds.5 mph88%30.12 "HgN/A
1:20 PM54 °FBroken clouds.5 mph88%30.12 "HgN/A
12:50 PM52 °FBroken clouds.5 mph94%30.15 "HgN/A
12:20 PM52 °FBroken clouds.3 mph94%30.15 "HgN/A
11:50 AM52 °FBroken clouds.2 mph88%30.15 "HgN/A
11:20 AM52 °FBroken clouds.3 mph88%30.15 "HgN/A
10:50 AM50 °FBroken clouds.3 mph94%30.15 "HgN/A
10:20 AM50 °FPartly sunny.2 mph94%30.12 "HgN/A
9:50 AM50 °FPartly sunny.2 mph94%30.12 "HgN/A
9:20 AM48 °FScattered showers. Partly sunny.No wind94%30.12 "HgN/A
8:50 AM48 °FDrizzle. Partly sunny.3 mph94%30.12 "HgN/A
8:20 AM48 °FLight rain. Partly sunny.No wind87%30.12 "HgN/A
7:50 AM46 °FPartly sunny.No wind93%30.12 "HgN/A
7:20 AM46 °FPassing clouds.No wind93%30.12 "HgN/A
7:20 PM
Wed, Nov 25
48 °FLight rain. Partly cloudy.No wind100%30.04 "Hg5 mi
6:50 PM48 °FLight rain. Partly cloudy.No wind100%30.01 "Hg5 mi
6:20 PM48 °FLight rain. Partly cloudy.No wind100%30.01 "Hg5 mi
5:50 PM48 °FLight rain. Partly cloudy.3 mph94%29.98 "Hg5 mi
5:20 PM48 °FLight rain. Partly cloudy.8 mph94%29.98 "Hg5 mi
4:50 PM50 °FPartly cloudy.9 mph88%29.98 "Hg5 mi
4:20 PM50 °FPartly cloudy.8 mph88%29.98 "Hg5 mi
Weather by CustomWeather, © 2015

See weather overviewHow to use our weather pages